Terug naar catalogus

COSMOS 886 DEB

ActiefLEO
NORAD 20673·DEBRIS·🇷🇺 Russia

Gelanceerd Dec 27, 1976 vanaf Baikonur Cosmodrome

Loading…

Volgende Passages (komende 24 uur)

TLE

VersSource: Space-Track

Epoch: Sep 14, 2026, 10:08 UTC

1 20673U 76126CG  26257.42285192  .00009770  00000-0  10083-2 0  9992
2 20673  65.5613 307.6003 0245341 179.9517 180.1662 14.70853966740467

Volg COSMOS 886 DEB in realtime met AllMySat

Download on the App Store